Waarnemingen

Advertentie
Mijn weer
Gijon, Spanje (8014): temperatuur & dauwpunt: 23.01.2020 20:00:00 - 29.01.2020 20:00:00 (CET)Gijon, Spanje (8014): windsnelheid: 23.01.2020 20:00:00 - 29.01.2020 20:00:00 (CET)Gijon, Spanje (8014): windrichting: 23.01.2020 20:00:00 - 29.01.2020 20:00:00 (CET)Gijon, Spanje (8014): luchtdruk: 23.01.2020 20:00:00 - 29.01.2020 20:00:00 (CET)Gijon, Spanje (8014): zicht: 23.01.2020 20:00:00 - 29.01.2020 20:00:00 (CET)
Datum & Tijd tt [°C] td [°C] ff [km/u] ff [kn] dd ppp [hPa] vv [km]
29.01.2020 20:00:00 - - - - - - -
29.01.2020 19:00:00 - - - - - - -
29.01.2020 18:00:00 - - - - - - -
29.01.2020 17:00:00 - - - - - - -
29.01.2020 16:00:00 - - - - - - -
29.01.2020 15:00:00 - - - - - - -
29.01.2020 14:00:00 - - - - - - -
29.01.2020 13:00:00 12,2 10,6 4 2 ONO 1018,3 12
29.01.2020 12:00:00 - - - - - - -
29.01.2020 11:00:00 - - - - - - -
29.01.2020 10:00:00 11,0 9,3 15 8 ZW 1018,8 15
29.01.2020 09:00:00 - - - - - - -
29.01.2020 08:00:00 - - - - - - -
29.01.2020 07:00:00 10,0 9,2 0 0 N 1018,9 20
29.01.2020 06:00:00 - - - - - - -
29.01.2020 05:00:00 - - - - - - -
29.01.2020 04:00:00 - - - - - - -
29.01.2020 03:00:00 - - - - - - -
29.01.2020 02:00:00 - - - - - - -
29.01.2020 01:00:00 - - - - - - -
29.01.2020 00:00:00 - - - - - - -
28.01.2020 23:00:00 - - - - - - -
28.01.2020 22:00:00 - - - - - - -
28.01.2020 21:00:00 - - - - - - -
28.01.2020 20:00:00 - - - - - - -
28.01.2020 19:00:00 - - - - - - -
28.01.2020 18:00:00 - - - - - - -
28.01.2020 17:00:00 - - - - - - -
28.01.2020 16:00:00 - - - - - - -
28.01.2020 15:00:00 - - - - - - -
28.01.2020 14:00:00 - - - - - - -
28.01.2020 13:00:00 14,8 7,6 4 2 OZO 1019,3 25
28.01.2020 12:00:00 - - - - - - -
28.01.2020 11:00:00 - - - - - - -
28.01.2020 10:00:00 11,5 3,5 5 3 ZZW 1018,5 30
28.01.2020 09:00:00 - - - - - - -
28.01.2020 08:00:00 - - - - - - -
28.01.2020 07:00:00 11,7 6,0 5 3 ZZW 1016,9 20
28.01.2020 06:00:00 - - - - - - -
28.01.2020 05:00:00 - - - - - - -
28.01.2020 04:00:00 - - - - - - -
28.01.2020 03:00:00 - - - - - - -
28.01.2020 02:00:00 - - - - - - -
28.01.2020 01:00:00 - - - - - - -
28.01.2020 00:00:00 - - - - - - -
27.01.2020 23:00:00 - - - - - - -
27.01.2020 22:00:00 - - - - - - -
27.01.2020 21:00:00 - - - - - - -
27.01.2020 20:00:00 - - - - - - -
27.01.2020 19:00:00 - - - - - - -
27.01.2020 18:00:00 - - - - - - -
27.01.2020 17:00:00 - - - - - - -
27.01.2020 16:00:00 - - - - - - -
27.01.2020 15:00:00 - - - - - - -
27.01.2020 14:00:00 - - - - - - -
27.01.2020 13:00:00 12,4 9,2 21 11 ZZW 1014,0 20
27.01.2020 12:00:00 - - - - - - -
27.01.2020 11:00:00 - - - - - - -
27.01.2020 10:00:00 12,2 7,3 13 7 WZW 1015,1 5
27.01.2020 09:00:00 - - - - - - -
27.01.2020 08:00:00 - - - - - - -
27.01.2020 07:00:00 12,2 8,7 9 5 NNW 1014,2 12
27.01.2020 06:00:00 - - - - - - -
27.01.2020 05:00:00 - - - - - - -
27.01.2020 04:00:00 - - - - - - -
27.01.2020 03:00:00 - - - - - - -
27.01.2020 02:00:00 - - - - - - -
27.01.2020 01:00:00 - - - - - - -
27.01.2020 00:00:00 - - - - - - -
26.01.2020 23:00:00 - - - - - - -
26.01.2020 22:00:00 - - - - - - -
26.01.2020 21:00:00 - - - - - - -
26.01.2020 20:00:00 - - - - - - -
26.01.2020 19:00:00 - - - - - - -
26.01.2020 18:00:00 - - - - - - -
26.01.2020 17:00:00 - - - - - - -
26.01.2020 16:00:00 - - - - - - -
26.01.2020 15:00:00 - - - - - - -
26.01.2020 14:00:00 - - - - - - -
26.01.2020 13:00:00 12,2 3,7 15 8 ZZW 1019,7 30
26.01.2020 12:00:00 - - - - - - -
26.01.2020 11:00:00 - - - - - - -
26.01.2020 10:00:00 8,4 3,7 13 7 ZW 1019,8 25
26.01.2020 09:00:00 - - - - - - -
26.01.2020 08:00:00 - - - - - - -
26.01.2020 07:00:00 8,8 3,6 8 4 WZW 1018,2 15
26.01.2020 06:00:00 - - - - - - -
26.01.2020 05:00:00 - - - - - - -
26.01.2020 04:00:00 - - - - - - -
26.01.2020 03:00:00 - - - - - - -
26.01.2020 02:00:00 - - - - - - -
26.01.2020 01:00:00 - - - - - - -
26.01.2020 00:00:00 - - - - - - -
25.01.2020 23:00:00 - - - - - - -
25.01.2020 22:00:00 - - - - - - -
25.01.2020 21:00:00 - - - - - - -
25.01.2020 20:00:00 - - - - - - -
25.01.2020 19:00:00 - - - - - - -
25.01.2020 18:00:00 - - - - - - -
25.01.2020 17:00:00 - - - - - - -
25.01.2020 16:00:00 - - - - - - -
25.01.2020 15:00:00 - - - - - - -
25.01.2020 14:00:00 - - - - - - -
25.01.2020 13:00:00 13,2 6,5 4 2 O 1017,0 30
25.01.2020 12:00:00 - - - - - - -
25.01.2020 11:00:00 - - - - - - -
25.01.2020 10:00:00 9,4 5,0 9 5 ZW 1016,6 20
25.01.2020 09:00:00 - - - - - - -
25.01.2020 08:00:00 - - - - - - -
25.01.2020 07:00:00 9,2 4,6 8 4 ZW 1016,5 15
25.01.2020 06:00:00 - - - - - - -
25.01.2020 05:00:00 - - - - - - -
25.01.2020 04:00:00 - - - - - - -
25.01.2020 03:00:00 - - - - - - -
25.01.2020 02:00:00 - - - - - - -
25.01.2020 01:00:00 - - - - - - -
25.01.2020 00:00:00 - - - - - - -
24.01.2020 23:00:00 - - - - - - -
24.01.2020 22:00:00 - - - - - - -
24.01.2020 21:00:00 - - - - - - -
24.01.2020 20:00:00 - - - - - - -
24.01.2020 19:00:00 - - - - - - -
24.01.2020 18:00:00 - - - - - - -
24.01.2020 17:00:00 - - - - - - -
24.01.2020 16:00:00 - - - - - - -
24.01.2020 15:00:00 - - - - - - -
24.01.2020 14:00:00 - - - - - - -
24.01.2020 13:00:00 10,6 5,4 11 6 ZZW 1019,0 25
24.01.2020 12:00:00 - - - - - - -
24.01.2020 11:00:00 - - - - - - -
24.01.2020 10:00:00 8,4 3,3 8 4 ZW 1018,2 25
24.01.2020 09:00:00 - - - - - - -
24.01.2020 08:00:00 - - - - - - -
24.01.2020 07:00:00 7,6 4,4 8 4 WZW 1017,8 15
24.01.2020 06:00:00 - - - - - - -
24.01.2020 05:00:00 - - - - - - -
24.01.2020 04:00:00 - - - - - - -
24.01.2020 03:00:00 - - - - - - -
24.01.2020 02:00:00 - - - - - - -
24.01.2020 01:00:00 - - - - - - -
24.01.2020 00:00:00 - - - - - - -
23.01.2020 23:00:00 - - - - - - -
23.01.2020 22:00:00 - - - - - - -
23.01.2020 21:00:00 - - - - - - -
23.01.2020 20:00:00 - - - - - - -

tt = temperatuur
td = dauwpunt
ff = windsnelheid
dd = windrichting
ppp = luchtdruk
vv = zicht

Weerstations in de omgeving